Wind_Speed
24 25 19 20 23 25 26 28 30 33 33 32 32 33 29 29 35 38 38 34 35 36 36 33 33 31 27 28 24 21 20 20 20 20 21 23 25 26 25 25 27 26 27 28 28
26 29 24 24 25 30 31 32 31 32 34 32 28 32 30 24 23 35 40 37 37 37 39 35 33 35 30 28 29 29 27 24 23 26 28 28 28 28 26 27 26 28 27 28 28
30 30 27 25 30 32 32 32 30 31 30 30 27 29 27 22 16 29 40 38 36 36 41 36 31 36 36 31 31 35 33 27 26 29 28 28 30 31 27 26 25 26 27 28 31
33 34 31 31 33 33 33 32 30 31 28 28 25 26 25 25 20 23 37 37 33 35 40 38 35 31 37 35 30 38 35 32 30 25 28 31 30 31 31 27 23 24 27 30 34
33 33 34 35 36 32 30 27 29 29 27 27 25 23 23 21 17 15 30 35 32 34 40 40 36 34 35 38 36 33 35 35 33 33 30 33 34 33 34 31 29 29 29 31 33
37 37 38 35 32 30 28 29 28 31 27 25 24 22 21 19 13 11 18 28 29 32 38 38 39 36 36 37 35 31 33 34 35 38 38 33 35 38 38 39 34 34 37 40 39
39 39 41 38 33 27 28 30 28 28 30 25 25 22 21 17 16 17 18 24 24 26 34 38 38 36 37 37 36 37 37 37 40 40 39 36 36 42 45 43 42 39 44 42 42
42 40 39 39 33 30 30 31 28 27 30 27 26 23 23 19 21 23 21 24 27 27 33 38 41 40 39 41 41 42 41 42 44 44 43 44 45 44 46 46 44 47 50 48 48
42 40 37 37 34 33 35 31 28 29 30 26 27 28 28 24 23 26 27 28 27 31 36 43 44 44 44 44 44 45 46 45 46 47 49 47 51 51 50 52 53 51 51 52 53
37 37 37 35 37 34 34 31 30 29 31 28 29 30 31 30 29 27 30 31 32 36 36 39 45 48 48 49 50 50 50 49 48 49 47 47 50 51 54 55 54 53 53 53 53
38 38 39 38 34 36 38 35 34 34 31 33 33 32 34 32 33 33 34 34 35 36 39 44 48 51 50 49 50 51 52 52 53 51 50 54 55 55 54 52 53 52 52 57 62
39 38 37 35 35 35 36 37 39 35 34 34 34 33 36 35 37 37 38 41 43 43 44 45 49 51 50 52 52 53 55 56 57 57 56 57 56 53 52 56 59 62 64 66 67
41 40 40 40 39 37 34 39 38 37 38 37 37 37 37 37 38 41 42 44 46 47 46 48 53 52 53 52 52 52 54 57 59 59 57 59 57 58 58 59 61 63 65 66 68
41 41 41 39 39 37 37 36 35 37 38 39 39 38 38 39 40 43 45 48 49 48 47 53 56 58 58 58 58 57 59 59 59 60 56 58 53 57 59 60 61 63 64 65 65
37 37 35 35 37 38 36 38 37 36 37 39 40 41 41 42 41 43 45 46 48 50 52 56 57 57 59 60 59 59 62 61 60 60 60 59 59 56 61 61 63 65 67 67 66
35 33 34 35 38 40 41 46 44 44 42 39 41 41 42 44 45 46 47 48 49 48 49 55 54 54 55 56 58 59 61 63 63 64 60 62 65 59 61 66 66 66 66 67 67
34 34 35 35 38 42 46 46 49 50 48 46 48 50 50 52 53 54 54 56 56 55 57 58 60 61 61 62 64 67 67 66 64 63 58 63 62 56 59 64 66 69 72 73 73
32 35 37 41 43 47 48 49 52 54 54 54 54 55 57 60 61 61 63 66 66 67 67 66 69 70 70 70 73 75 76 75 74 75 70 70 64 65 68 69 71 75 77 79 79
34 38 42 45 47 49 52 54 56 57 59 61 62 63 64 65 67 69 70 72 74 76 78 76 76 80 80 79 80 80 83 83 82 80 80 77 75 76 76 76 78 80 84 86 85
38 41 44 45 47 51 54 56 59 61 63 66 68 68 68 70 73 72 75 74 76 76 78 80 80 84 88 87 87 87 87 88 89 85 84 80 82 83 80 81 85 88 90 91 91
46 48 51 53 55 56 59 61 63 66 68 70 73 74 75 76 79 80 80 81 83 87 87 87 84 81 88 92 93 94 93 95 95 94 92 87 87 88 88 90 91 92 94 95 94
48 51 54 57 59 62 64 66 68 71 73 75 77 79 81 82 84 87 89 90 91 92 94 94 92 89 91 94 97 99 98 99 100 100 100 97 90 93 94 94 93 91 90 91 92
54 56 57 60 61 63 65 68 72 75 78 80 82 83 85 86 88 89 91 93 95 96 96 96 98 94 93 97 98 100 98 96 94 93 94 96 88 91 91 88 86 85 84 80 79
54 55 56 55 56 56 57 61 64 68 71 73 75 79 81 85 88 89 91 93 96 99 102 103 103 104 101 101 101 101 102 101 100 99 96 94 89 92 90 86 83 83 82 81 81
50 45 39 38 41 44 48 51 55 59 62 63 64 68 70 71 72 73 75 78 86 90 92 93 93 100 104 106 107 109 108 107 106 104 103 103 101 98 96 94 91 89 89 88 88
38 32 35 41 43 43 47 51 53 57 61 61 61 58 58 58 58 60 63 72 78 86 89 88 88 93 94 98 96 100 106 107 107 105 108 107 106 105 103 101 98 97 96 94 93
36 36 39 38 40 44 46 50 54 57 58 55 50 44 39 40 45 50 58 66 65 69 72 74 77 81 84 86 89 97 102 97 94 96 107 107 106 104 102 103 103 101 99 99 97
Wind_Direction
253 260 255 259 274 276 285 290 299 301 297 300 301 303 303 283 251 237 232 233 222 217 214 217 222 217 218 212 214 220 226 231 247 260 265 267 263 257 255 256 255 259 259 265 268
257 258 259 267 272 280 284 290 296 302 299 301 304 305 314 306 260 231 224 224 218 220 213 219 224 219 216 218 226 222 231 240 247 260 257 261 260 256 251 255 258 256 264 271 274
257 255 260 264 273 279 286 292 295 303 300 298 295 300 313 311 272 237 223 221 216 220 216 217 222 226 224 227 229 228 234 240 242 256 251 251 260 262 254 254 258 262 267 269 274
254 256 264 269 276 283 286 290 295 298 298 296 292 296 305 305 288 246 224 220 217 220 222 222 223 229 228 229 231 229 236 242 238 243 246 248 252 256 257 253 251 256 262 267 271
252 256 263 273 276 279 287 284 292 298 295 287 291 287 294 294 282 253 228 223 220 222 223 227 224 228 233 231 235 238 231 233 236 231 237 244 245 253 257 257 255 256 264 264 268
250 258 262 272 277 278 275 280 286 289 292 289 290 277 285 285 281 250 229 228 227 224 224 228 231 236 233 231 230 233 227 236 245 241 245 249 253 254 256 259 257 267 267 268 270
253 258 264 270 273 270 272 278 284 282 283 294 285 272 270 266 263 237 232 224 223 235 233 231 235 237 236 234 239 240 242 246 248 249 255 254 255 255 254 260 264 266 274 271 273
255 261 263 266 265 266 270 271 276 285 280 288 286 273 257 252 248 247 242 236 237 235 232 233 237 239 238 236 241 244 248 249 249 251 254 255 252 254 256 259 268 272 274 274 273
260 261 263 266 256 269 269 269 276 278 281 283 284 273 263 252 250 246 248 246 243 243 237 235 238 241 241 241 243 246 249 251 252 253 256 256 260 263 268 269 270 271 271 272 276
261 264 266 258 256 264 276 274 272 271 274 280 279 274 264 261 254 251 249 248 246 246 247 246 245 246 245 246 248 250 253 253 255 256 256 258 260 263 266 268 271 270 271 273 275
259 263 262 255 259 266 273 275 272 271 265 279 274 273 263 262 261 255 254 254 251 249 250 252 252 251 252 255 255 253 254 258 258 258 260 261 263 265 266 269 270 270 271 272 274
258 260 257 255 259 269 270 275 265 264 269 281 272 264 265 259 257 255 253 253 254 253 252 253 253 253 252 254 257 258 257 259 260 260 262 263 265 266 266 269 271 273 272 274 276
259 258 257 263 257 261 271 275 270 266 267 276 274 259 262 262 257 254 253 253 254 255 257 259 257 258 258 257 256 256 258 257 258 260 261 263 265 268 268 268 268 270 272 273 274
257 260 263 262 259 255 267 274 270 267 267 270 265 258 259 259 259 258 255 257 256 257 257 257 258 258 258 259 259 258 258 259 260 261 260 262 261 265 267 268 270 272 272 274 276
260 260 262 261 253 259 266 264 263 264 264 263 260 256 258 259 257 257 258 258 259 258 257 257 259 262 262 261 263 261 261 260 261 262 263 263 262 263 268 268 269 270 271 273 274
259 260 263 262 257 260 266 269 269 271 270 263 266 265 264 264 263 263 262 262 263 263 262 264 264 265 266 267 267 265 263 261 260 261 261 263 262 262 264 267 269 270 271 272 274
259 258 257 259 263 266 265 263 264 269 269 268 266 267 269 269 269 267 265 265 264 264 264 264 265 267 269 268 267 266 264 263 262 261 261 261 263 263 264 267 268 270 271 271 272
264 262 266 267 271 265 265 266 267 268 267 269 268 268 267 268 268 266 267 267 265 264 263 264 264 265 266 267 268 266 266 266 265 265 263 264 267 265 264 265 266 268 270 271 272
266 266 265 265 266 266 268 269 269 269 270 270 269 269 269 268 268 269 267 265 265 264 262 261 261 264 263 264 265 265 265 266 266 265 265 267 266 265 265 266 267 268 269 271 272
276 273 272 271 272 272 271 270 269 270 271 271 271 271 270 269 269 268 268 267 267 265 264 264 263 264 265 264 263 262 263 265 266 265 265 265 267 266 265 267 267 268 268 270 272
278 277 276 276 275 274 273 273 271 271 270 270 270 270 269 269 268 266 265 265 265 266 264 263 262 259 261 263 263 264 263 263 263 265 266 263 264 265 265 265 266 267 268 270 271
283 281 280 279 277 277 276 275 274 272 270 270 270 271 271 270 270 269 268 268 266 265 265 265 262 261 261 261 261 262 264 265 266 265 265 265 265 265 264 263 264 266 267 268 269
293 291 288 286 284 281 279 277 276 274 274 273 272 271 270 269 269 269 270 270 268 268 266 264 265 262 260 260 260 261 262 262 262 264 266 266 266 263 263 263 265 265 266 267 268
304 300 296 292 288 287 287 286 284 283 281 280 280 279 277 276 274 272 271 270 270 268 267 266 265 265 262 259 258 259 258 260 261 262 262 263 263 263 265 264 265 266 267 267 266
308 303 299 298 299 297 296 295 294 293 291 289 286 284 282 281 279 277 274 272 272 269 267 266 264 262 263 263 260 257 255 255 256 258 260 262 261 260 261 263 263 263 264 265 265
309 302 304 305 303 302 301 301 300 298 298 296 292 288 285 280 278 278 278 275 272 274 275 272 268 265 263 262 261 260 258 256 255 255 256 257 259 260 261 262 262 262 263 262 264
305 303 307 310 311 310 311 313 314 313 312 309 304 300 294 290 289 290 290 286 283 281 278 274 270 266 262 262 259 259 262 261 258 257 256 256 257 259 260 262 262 262 262 263 264
Height
10883 10885 10886 10886 10886 10885 10885 10883 10882 10879 10876 10875 10872 10868 10865 10862 10863 10869 10875 10881 10887 10891 10897 10901 10905 10910 10914 10917 10919 10921 10920 10920 10920 10921 10921 10922 10924 10925 10928 10929 10930 10930 10931 10931 10932
10879 10880 10881 10881 10881 10880 10880 10878 10876 10874 10871 10869 10866 10862 10859 10856 10855 10859 10866 10872 10878 10883 10890 10895 10900 10905 10909 10913 10916 10917 10916 10917 10918 10917 10918 10918 10919 10920 10924 10924 10925 10926 10926 10926 10928
10874 10875 10876 10876 10876 10875 10874 10873 10871 10869 10866 10864 10862 10859 10856 10853 10852 10853 10858 10865 10872 10877 10883 10889 10893 10898 10903 10907 10910 10911 10911 10913 10914 10912 10912 10913 10913 10913 10916 10919 10920 10921 10921 10921 10922
10868 10870 10871 10871 10870 10870 10869 10868 10866 10864 10861 10860 10858 10857 10853 10851 10850 10851 10854 10861 10868 10872 10877 10883 10888 10891 10896 10900 10903 10905 10907 10907 10908 10908 10906 10907 10907 10908 10910 10914 10916 10916 10916 10917 10917
10863 10864 10865 10865 10865 10863 10863 10862 10861 10859 10857 10856 10854 10854 10853 10851 10849 10849 10852 10857 10863 10867 10872 10878 10882 10886 10889 10893 10895 10897 10900 10899 10899 10900 10900 10901 10902 10903 10902 10905 10908 10910 10911 10911 10911
10857 10858 10858 10859 10858 10857 10857 10857 10856 10854 10853 10851 10851 10851 10850 10849 10848 10848 10850 10854 10859 10863 10867 10871 10875 10877 10882 10885 10887 10888 10891 10892 10892 10893 10895 10896 10898 10896 10896 10898 10901 10902 10902 10902 10902
10851 10852 10852 10852 10852 10851 10851 10850 10849 10848 10848 10847 10846 10847 10847 10847 10847 10847 10848 10850 10854 10858 10861 10864 10867 10871 10873 10877 10879 10881 10883 10885 10885 10886 10887 10890 10891 10888 10889 10890 10893 10893 10893 10894 10895
10844 10845 10845 10846 10846 10845 10844 10843 10843 10844 10843 10842 10842 10842 10842 10843 10843 10844 10846 10848 10851 10853 10856 10857 10860 10862 10865 10867 10870 10872 10874 10875 10876 10878 10879 10881 10879 10880 10881 10883 10885 10886 10882 10882 10882
10836 10837 10837 10838 10839 10838 10837 10837 10837 10838 10837 10837 10836 10836 10836 10838 10838 10840 10841 10843 10844 10846 10848 10849 10851 10853 10856 10859 10860 10861 10863 10866 10867 10869 10869 10872 10870 10871 10872 10872 10874 10875 10871 10871 10870
10828 10829 10830 10830 10831 10831 10831 10831 10831 10832 10831 10830 10830 10830 10830 10831 10833 10834 10835 10836 10838 10838 10839 10840 10842 10844 10846 10848 10851 10853 10854 10855 10855 10856 10859 10860 10858 10860 10860 10861 10862 10862 10860 10860 10858
10820 10821 10821 10822 10823 10823 10824 10824 10825 10825 10823 10824 10823 10823 10822 10824 10825 10827 10827 10828 10829 10830 10831 10832 10832 10832 10836 10838 10840 10843 10844 10844 10843 10845 10846 10846 10848 10849 10850 10850 10848 10847 10848 10847 10847
10812 10813 10813 10813 10815 10816 10815 10816 10815 10816 10816 10816 10815 10814 10813 10814 10815 10816 10817 10817 10818 10820 10821 10821 10819 10820 10825 10827 10828 10829 10832 10831 10832 10832 10835 10833 10836 10839 10839 10837 10835 10833 10832 10831 10830
10803 10804 10804 10805 10807 10807 10807 10807 10807 10807 10809 10807 10806 10805 10805 10804 10804 10804 10806 10806 10806 10808 10810 10810 10805 10809 10811 10814 10816 10817 10816 10816 10817 10821 10825 10823 10827 10827 10825 10824 10823 10820 10818 10815 10814
10794 10795 10796 10797 10797 10798 10799 10799 10797 10797 10799 10799 10795 10795 10794 10793 10793 10792 10794 10793 10793 10796 10799 10795 10794 10794 10797 10799 10800 10802 10801 10802 10804 10805 10811 10809 10818 10813 10812 10810 10808 10806 10802 10798 10799
10785 10787 10788 10788 10788 10790 10791 10790 10787 10786 10789 10787 10784 10784 10783 10782 10783 10782 10781 10781 10781 10782 10785 10780 10779 10781 10781 10782 10785 10787 10787 10789 10790 10791 10794 10798 10799 10803 10794 10795 10792 10788 10786 10784 10784
10778 10780 10780 10780 10780 10781 10780 10779 10777 10775 10775 10777 10775 10774 10773 10772 10772 10771 10771 10769 10770 10770 10772 10765 10767 10768 10767 10768 10767 10769 10770 10771 10774 10775 10784 10781 10779 10790 10785 10775 10774 10772 10769 10766 10766
10769 10770 10771 10771 10771 10770 10768 10766 10765 10763 10763 10764 10761 10760 10760 10759 10758 10757 10757 10756 10755 10757 10755 10753 10750 10751 10752 10752 10751 10749 10749 10752 10757 10759 10769 10762 10764 10776 10770 10764 10760 10754 10750 10748 10749
10762 10762 10761 10761 10760 10757 10756 10754 10752 10750 10748 10748 10747 10746 10744 10742 10742 10741 10739 10737 10738 10738 10738 10739 10732 10731 10733 10733 10731 10731 10729 10733 10736 10738 10747 10746 10756 10757 10752 10749 10745 10737 10732 10729 10730
10754 10752 10750 10749 10747 10745 10743 10740 10738 10736 10733 10731 10731 10729 10728 10725 10723 10722 10720 10716 10715 10716 10714 10716 10717 10708 10710 10712 10711 10712 10708 10710 10714 10719 10721 10730 10735 10733 10731 10729 10726 10723 10716 10709 10709
10743 10740 10739 10737 10735 10731 10728 10726 10723 10719 10716 10712 10710 10710 10710 10707 10702 10702 10696 10696 10692 10693 10691 10693 10700 10693 10684 10686 10688 10686 10687 10686 10685 10694 10699 10711 10706 10705 10710 10709 10704 10698 10694 10691 10692
10732 10729 10725 10723 10720 10716 10712 10709 10704 10701 10698 10694 10690 10687 10686 10684 10679 10676 10676 10674 10671 10664 10664 10665 10672 10678 10666 10661 10660 10660 10663 10662 10661 10665 10670 10683 10684 10684 10685 10681 10678 10677 10673 10672 10671
10718 10715 10710 10704 10701 10698 10693 10689 10684 10679 10675 10672 10668 10665 10661 10659 10655 10650 10647 10644 10644 10641 10635 10635 10641 10650 10647 10641 10637 10632 10634 10635 10634 10636 10640 10649 10667 10659 10657 10653 10654 10656 10653 10651 10650
10701 10697 10692 10687 10682 10676 10672 10667 10660 10655 10650 10647 10644 10641 10637 10633 10630 10624 10619 10614 10610 10607 10608 10607 10604 10614 10619 10611 10611 10607 10611 10609 10607 10608 10612 10613 10634 10622 10623 10632 10635 10632 10632 10631 10631
10685 10678 10670 10666 10660 10656 10650 10644 10639 10633 10627 10624 10617 10612 10607 10603 10599 10596 10592 10585 10577 10573 10571 10572 10574 10572 10581 10582 10581 10583 10581 10582 10582 10584 10587 10588 10597 10591 10597 10605 10610 10610 10611 10612 10611
10672 10664 10659 10655 10650 10644 10637 10631 10623 10615 10607 10600 10596 10589 10581 10576 10570 10565 10562 10557 10541 10535 10535 10537 10546 10534 10537 10542 10547 10546 10552 10553 10555 10558 10560 10561 10565 10565 10571 10577 10585 10588 10588 10590 10590
10662 10656 10651 10646 10639 10633 10625 10618 10610 10599 10589 10580 10571 10566 10559 10553 10548 10541 10536 10525 10520 10507 10502 10504 10509 10506 10510 10502 10510 10509 10508 10520 10531 10532 10532 10533 10534 10539 10545 10549 10555 10559 10561 10565 10566
10652 10647 10642 10635 10629 10622 10614 10604 10594 10583 10571 10560 10550 10543 10540 10536 10531 10524 10514 10504 10499 10486 10476 10471 10470 10472 10474 10475 10481 10480 10480 10491 10499 10500 10496 10505 10513 10519 10521 10520 10523 10529 10534 10536 10542